Regional Weather Roundup
Issued by NWS

Home | Current Version | Previous Version | Text Only | Print | Product List | Glossary On
Versions: 1 2 3 4 5 6 7 8 9 10 11 12 13 14 15 16 17 18 19 20 21 22 23 24 25 26 27 28 29 30 31 32 33 34 35 36 37 38 39 40 41 42 43 44 45 46 47 48 49 50
000
ASUS44 KOUN 260210
RWROK

WEATHER ROUNDUP FOR OKLAHOMA
NATIONAL WEATHER SERVICE NORMAN OK
900 PM CDT SUN SEP 25 2016

NOTE: "FAIR" INDICATES FEW OR NO CLOUDS BELOW 12,000 FEET WITH NO
      SIGNIFICANT WEATHER AND/OR OBSTRUCTIONS TO VISIBILITY.

OKZ001>007-009>012-014-015-017-260300-
NORTHWEST OKLAHOMA AND THE PANHANDLE

CITY           SKY/WX    TMP DP  RH WIND       PRES   REMARKS
GAGE           MOCLDY    61  51  70 CALM      30.26R
GUYMON         CLEAR     60  33  36 N6        30.32R
ENID/WOODRING  MOCLDY    64  57  77 N6        30.21R
$$

OKZ016-021>023-033>039-044-045-260300-
SOUTHWEST OKLAHOMA

CITY           SKY/WX    TMP DP  RH WIND       PRES   REMARKS
LAWTON/REGL    CLOUDY    65  54  67 N17       30.17R
LAWTON/FT SILL CLOUDY    64  48  55 N13       30.17R
FREDERICK      CLOUDY    63  57  81 NE12      30.16R
CLINTON        CLOUDY    62  54  74 N8        30.25R
HOBART         CLOUDY    63  54  72 NE14      30.21R
ALTUS AFB      CLOUDY    63  53  70 N12       30.19R
$$

OKZ018>020-024>031-260300-
CENTRAL OKLAHOMA

CITY           SKY/WX    TMP DP  RH WIND       PRES   REMARKS
OKLAHOMA CITY  LGT RAIN  64  55  72 N12       30.19R
OKC/WILEY POST CLOUDY    64  54  69 N12       30.20R
OKC/TINKER AFB CLOUDY    63  55  77 N9        30.18R
STILLWATER     CLOUDY    64  55  72 N8        30.20R
GUTHRIE        CLOUDY    63  56  78 N6        30.20R
$$

OKZ008-013-054>072-260300-
NORTHEAST OKLAHOMA

CITY           SKY/WX    TMP DP  RH WIND       PRES   REMARKS
TULSA          CLOUDY    63  60  90 N7        30.16R
TULSA/JONES    CLOUDY    63  58  83 N5        30.17R
PONCA CITY     CLOUDY    63  56  78 N6        30.20R
BARTLESVILLE   CLOUDY    63  58  83 CALM      30.20R
MUSKOGEE       CLOUDY    66  65  96 N12       30.15R
$$

OKZ032-040>043-046>053-073>077-260300-
SOUTH CENTRAL/SOUTHEAST OKLAHOMA

CITY           SKY/WX    TMP DP  RH WIND       PRES   REMARKS
ARDMORE/DWNTWN CLOUDY    68  63  83 NE8       30.12R
MCALESTER      CLOUDY    68  64  87 N15G22    30.14R
$$




USA.gov is the U.S. government's official web portal to all federal, state and local government web resources and services.